Terug naar catalogus

SL-19 DEB

ActiefUNKNOWN
NORAD 23482·DEBRIS·🇷🇺 Russia

Gelanceerd Dec 26, 1994 vanaf Baikonur Cosmodrome

Loading…

Volgende Passages (komende 24 uur)

TLE

VersSource: Space-Track

Epoch: Sep 14, 2026, 13:14 UTC

1 23482U 94085E   26257.55154639  .00000391  00000-0  10381-1 0  9992
2 23482  64.6845  87.4723 0380433 166.9167 227.3500 11.30982236306588

Volg SL-19 DEB in realtime met AllMySat

Download on the App Store